[[{"header":{"parameterUnit":"m.s-1","parameterCategory":1,"la1":30.2991,"la2":30.254,"lo1":-89.0895,"lo2":-89.0444,"dy":0.0017,"dx":0.0017,"nx":28,"ny":28,"refTime":"2024-02-27T03:00:00:Z","depth":0,"parameterNumber":2,"parameterNumberName":"U-component_of_WINDS"},"data":[0,0,0,0,0,0,0,0,0,0,0,0,0,0,0,0,0,0,0,0,0,0,0,0,0,0,0,0,0,0,0,0,0,0,0,0,0,0,0,0,0,0,0,0,0,0,0,0,0,0,0,0,0,0,0,0,0,0,1.7495,1.7493,0,1.7379,1.7378,1.7376,1.739,1.7391,1.7393,1.7395,1.7275,1.727,1.7265,0,0,0,0,0,0,0,0,0,0,0,0,0,1.7729,1.7725,1.7495,1.7493,1.7492,1.7379,1.7378,1.7376,1.7389,1.7392,1.7394,1.7396,1.7276,1.727,1.7265,0,0,0,0,0,0,0,0,0,0,0,0,0,1.7622,1.7723,1.7495,1.7485,1.7483,1.738,1.7378,1.7376,1.7389,1.7392,1.7394,1.7397,1.7278,1.7271,1.7264,1.7162,0,0,1.7241,1.7238,0,0,0,0,0,0,0,0,1.7628,1.7613,1.7488,1.7485,1.7483,1.7402,1.7416,1.7304,1.7388,1.7424,1.7395,1.7398,1.7315,1.7304,1.7276,1.7157,1.7152,1.724,1.7236,1.7233,1.7231,0,0,0,0,0,0,0,1.7635,1.7618,1.7449,1.7486,1.7483,1.7487,1.7475,1.7395,1.7355,1.7421,1.7422,1.7408,1.7314,1.7284,1.7274,1.715,1.7241,1.7234,1.723,1.7227,1.6948,1.6945,0,0,0,0,0,0,1.7645,1.7624,1.7453,1.7445,1.7564,1.7481,1.7467,1.7425,1.7356,1.7348,1.7406,1.7409,1.7295,1.7282,1.727,1.7151,1.7233,1.7226,1.7222,1.6951,1.6947,1.6944,0,0,0,0,0,0,1.765,1.763,1.7457,1.7535,1.7513,1.7473,1.7426,1.7421,1.7391,1.7345,1.7338,1.7382,1.7297,1.728,1.7191,1.7146,1.7223,1.7216,1.6954,1.695,1.6946,1.6909,0,0,0,0,0,0,1.7657,1.7631,1.7591,1.7534,1.7509,1.7379,1.7423,1.7417,1.7378,1.7382,1.7321,1.7313,1.7297,1.7202,1.7183,1.7138,1.721,1.6958,1.6952,1.6947,1.6914,1.6904,1.6895,0,0,0,0,0,1.7665,1.7584,1.7589,1.7568,1.7458,1.7376,1.7362,1.7346,1.7375,1.7335,1.7307,1.7315,1.7154,1.7192,1.7172,1.7123,1.6961,1.6954,1.6948,1.6918,1.6906,1.6896,0,0,0,0,0,0,1.7635,1.7576,1.7581,1.7479,1.7433,1.7379,1.7328,1.7333,1.7277,1.7282,1.7265,1.7251,1.7162,1.7133,1.7177,1.7025,1.7062,1.7051,1.7046,1.7034,1.7025,1.7034,1.7204,0,0,0,0,0,1.7617,1.7555,1.7507,1.7421,1.7398,1.7367,1.7331,1.7323,1.7275,1.7255,1.7219,1.7171,1.7111,1.7071,1.7012,1.6911,1.69,1.6868,1.6858,1.6851,1.6842,1.6791,1.6778,1.6922,1.6922,1.6923,0,0,1.7577,1.7538,1.7499,1.7414,1.7378,1.7316,1.735,1.7281,1.7236,1.7244,1.7159,1.7131,1.7077,1.6983,1.694,1.6957,1.68,1.6842,1.6837,1.6831,1.6783,1.6769,1.6757,1.6918,1.6919,1.6919,0,0,1.7475,1.7437,1.7364,1.7328,1.7274,1.7255,1.7238,1.7184,1.7167,1.7081,1.7088,1.7034,1.6928,1.6891,1.6859,1.6749,1.6757,1.6731,1.6682,1.6633,1.6621,1.6611,1.6576,1.6563,1.6722,1.6721,1.6721,0,1.7432,1.7339,1.7326,1.7258,1.7223,1.723,1.7158,1.7123,1.7051,1.7027,1.7048,1.692,1.6884,1.6783,1.6758,1.673,1.6712,1.6737,1.6624,1.6614,1.6604,1.657,1.6556,1.6719,1.6719,1.6719,1.672,0,1.7292,1.7228,1.7175,1.711,1.7068,1.6998,1.6976,1.6936,1.6934,1.6913,1.6829,1.6787,1.6722,1.6698,1.6693,1.6598,1.6611,1.6628,1.6665,1.6588,1.6556,1.6543,1.6715,1.6716,1.6717,1.6718,0,0,1.7163,1.7096,1.7077,1.705,1.6993,1.6943,1.6876,1.6814,1.6782,1.6734,1.6679,1.6593,1.661,1.6573,1.6565,1.6522,1.6443,1.6544,1.6543,1.653,1.6341,1.633,1.6315,1.6448,1.6446,1.6444,1.6347,0,1.7057,1.6939,1.6928,1.6822,1.6765,1.6774,1.6716,1.6676,1.6656,1.6606,1.6584,1.6525,1.655,1.6529,1.6487,1.6462,1.6406,1.6468,1.6399,1.6396,1.6413,1.6298,1.6284,1.6195,1.6334,1.6332,1.633,0,1.6917,1.6868,1.6757,1.6714,1.669,1.6637,1.6584,1.6535,1.6491,1.6481,1.6443,1.6442,1.6376,1.6416,1.6326,1.6369,1.634,1.6324,1.6321,1.6314,1.6359,1.6291,1.6166,1.6153,1.631,1.6311,1.6313,0,1.6838,1.6745,1.6668,1.6644,1.659,1.6555,1.6531,1.649,1.6456,1.6409,1.6387,1.6333,1.6303,1.6262,1.6248,1.6278,1.616,1.6197,1.6151,1.6152,1.6126,1.6128,1.5997,1.6104,1.6105,1.6105,1.6105,0,1.6722,1.6654,1.6633,1.6585,1.6512,1.6502,1.6429,1.6407,1.6372,1.6322,1.6326,1.628,1.6263,1.6215,1.6203,1.6133,1.6119,1.611,1.6108,1.611,1.6112,1.6092,1.6099,1.6101,1.6102,1.6103,1.6103,0,1.6621,1.6603,1.6521,1.6479,1.6468,1.6415,1.638,1.6336,1.632,1.6257,1.6242,1.6216,1.6159,1.6142,1.6072,1.6066,1.5984,1.5987,1.5999,1.6,1.5956,1.5961,1.5808,1.5789,1.5908,1.5906,1.5906,0,1.6548,1.6497,1.6452,1.642,1.6396,1.6343,1.631,1.6299,1.6264,1.6215,1.6177,1.6122,1.6077,1.5987,1.5963,1.5912,1.5914,1.5865,1.5906,1.5912,1.5917,1.5921,1.5918,1.5857,1.5855,1.5854,1.5854,0,1.6423,1.6418,1.637,1.6321,1.6281,1.6241,1.6203,1.6176,1.6161,1.6122,1.6066,1.6031,1.5964,1.591,1.586,1.5836,1.5843,1.5841,1.5828,1.5831,1.5841,1.5838,1.598,1.5844,1.5845,1.5846,1.5846,1.5847,1.6335,1.6293,1.6256,1.6204,1.6175,1.614,1.6098,1.6079,1.6032,1.5977,1.5974,1.5914,1.5877,1.581,1.5785,1.5739,1.5754,1.5734,1.573,1.5725,1.5724,1.5848,1.573,1.573,1.573,1.573,1.5731,0,1.6213,1.6191,1.6143,1.6092,1.6052,1.6064,1.6023,1.5989,1.5937,1.5902,1.586,1.5798,1.5748,1.5722,1.5672,1.5641,1.5643,1.5628,1.5631,1.5627,1.5712,1.5729,1.5628,1.5628,1.5628,1.5628,1.5628,1.5628,1.6144,1.6074,1.6067,1.5984,1.5962,1.5905,1.5882,1.5851,1.5824,1.5755,1.5714,1.5698,1.5668,1.5618,1.5573,1.5567,1.555,1.5534,1.553,1.561,1.562,1.563,1.5647,1.553,1.553,1.5449,1.5448,1.5448]},{"header":{"parameterUnit":"m.s-1","parameterCategory":1,"la1":30.2991,"la2":30.254,"lo1":-89.0895,"lo2":-89.0444,"dy":0.0017,"dx":0.0017,"nx":28,"ny":28,"refTime":"2024-02-27T03:00:00:Z","depth":0,"parameterNumber":3,"parameterNumberName":"V-component_of_WINDS"},"data":[0,0,0,0,0,0,0,0,0,0,0,0,0,0,0,0,0,0,0,0,0,0,0,0,0,0,0,0,0,0,0,0,0,0,0,0,0,0,0,0,0,0,0,0,0,0,0,0,0,0,0,0,0,0,0,0,0,0,2.7899,2.7898,0,2.7856,2.7855,2.7855,2.7847,2.7848,2.7848,2.7848,2.7801,2.7799,2.7797,0,0,0,0,0,0,0,0,0,0,0,0,0,2.7974,2.7973,2.7899,2.7898,2.7898,2.7856,2.7855,2.7854,2.7847,2.7848,2.7848,2.7848,2.7801,2.7799,2.7797,0,0,0,0,0,0,0,0,0,0,0,0,0,2.7937,2.7972,2.7899,2.7889,2.7888,2.7856,2.7855,2.7854,2.7847,2.7848,2.7848,2.7849,2.7802,2.7799,2.7797,2.7771,0,0,2.779,2.7788,0,0,0,0,0,0,0,0,2.7939,2.7934,2.7891,2.789,2.7888,2.7857,2.7864,2.7826,2.7847,2.7862,2.7848,2.7849,2.7819,2.7815,2.7806,2.7768,2.7766,2.7789,2.7788,2.7787,2.7786,0,0,0,0,0,0,0,2.7942,2.7936,2.7882,2.789,2.7889,2.7887,2.7882,2.7857,2.7838,2.7861,2.786,2.7856,2.7818,2.7808,2.7804,2.7766,2.7789,2.7787,2.7786,2.7785,2.7708,2.7707,0,0,0,0,0,0,2.7946,2.7938,2.7883,2.788,2.7916,2.7885,2.788,2.7867,2.7838,2.7834,2.7855,2.7855,2.7812,2.7807,2.7803,2.7772,2.7787,2.7785,2.7783,2.7709,2.7708,2.7707,0,0,0,0,0,0,2.7948,2.7942,2.7885,2.7909,2.7902,2.7883,2.7868,2.7866,2.7855,2.7834,2.783,2.7848,2.7812,2.7806,2.778,2.777,2.7783,2.7781,2.7709,2.7708,2.7707,2.7708,0,0,0,0,0,0,2.795,2.7942,2.7932,2.7909,2.7901,2.7862,2.7868,2.7864,2.7852,2.7851,2.7826,2.7823,2.7812,2.7783,2.7777,2.7767,2.7779,2.771,2.7709,2.7708,2.7709,2.7708,2.7706,0,0,0,0,0,2.7953,2.7932,2.7931,2.7925,2.7887,2.7862,2.7857,2.7846,2.7851,2.784,2.7827,2.7823,2.7772,2.7781,2.7774,2.7762,2.771,2.7709,2.7708,2.771,2.7708,2.7707,0,0,0,0,0,0,2.7952,2.7929,2.7928,2.7899,2.7883,2.7861,2.7847,2.7844,2.7825,2.7826,2.7812,2.7807,2.7781,2.7769,2.7779,2.7737,2.7742,2.7739,2.7746,2.7744,2.7742,2.7746,2.7777,0,0,0,0,0,2.7949,2.7931,2.7912,2.7888,2.7881,2.7866,2.7854,2.7848,2.7829,2.7822,2.7806,2.7788,2.7769,2.7756,2.7736,2.7708,2.7703,2.7697,2.7696,2.7695,2.7692,2.7679,2.7677,2.7703,2.7703,2.7703,0,0,2.7942,2.7927,2.7916,2.7888,2.7875,2.7856,2.7859,2.7839,2.7825,2.7818,2.7793,2.7782,2.7761,2.7734,2.7722,2.7723,2.7684,2.7693,2.7693,2.769,2.7677,2.7675,2.7673,2.7702,2.7702,2.7702,0,0,2.7919,2.7906,2.7886,2.7874,2.7854,2.7845,2.7841,2.782,2.7812,2.7787,2.7783,2.7766,2.7732,2.7718,2.7706,2.7683,2.7679,2.7677,2.7669,2.7657,2.7655,2.7653,2.7646,2.7643,2.7675,2.7675,2.7675,0,2.7912,2.7884,2.7876,2.7857,2.7846,2.7841,2.7822,2.781,2.7784,2.7776,2.7779,2.7738,2.7724,2.7695,2.769,2.768,2.7675,2.7679,2.7656,2.7654,2.7652,2.7645,2.7642,2.7675,2.7675,2.7675,2.7675,0,2.7877,2.7859,2.7845,2.7824,2.7811,2.7791,2.778,2.7768,2.7764,2.7755,2.7731,2.7714,2.7692,2.7685,2.7679,2.7656,2.7658,2.7659,2.7663,2.7649,2.7643,2.764,2.7675,2.7675,2.7675,2.7675,0,0,2.785,2.7827,2.7822,2.7814,2.7794,2.7779,2.7761,2.7741,2.7732,2.7715,2.77,2.7673,2.7674,2.7661,2.7655,2.7643,2.7628,2.7645,2.7645,2.7643,2.7604,2.7604,2.76,2.7627,2.7626,2.7625,2.7606,0,2.7826,2.7793,2.7787,2.7759,2.7743,2.774,2.7724,2.7711,2.7702,2.7687,2.7678,2.7659,2.7662,2.7655,2.7644,2.7632,2.762,2.7634,2.7612,2.7611,2.7617,2.7597,2.7596,2.7578,2.7603,2.7602,2.7602,0,2.7792,2.7777,2.7749,2.7734,2.7727,2.7713,2.7696,2.7682,2.7667,2.7662,2.7649,2.7645,2.7626,2.7633,2.7608,2.7617,2.7609,2.7602,2.7601,2.7598,2.7605,2.7594,2.7571,2.7569,2.7598,2.7598,2.7598,0,2.7776,2.7749,2.7729,2.7722,2.7704,2.7695,2.7686,2.7672,2.7662,2.7648,2.7641,2.7624,2.7614,2.7601,2.7593,2.7598,2.7569,2.7574,2.7564,2.7565,2.7557,2.7558,2.7534,2.7552,2.7552,2.7552,2.7552,0,2.7749,2.7732,2.7723,2.771,2.7691,2.7685,2.7666,2.7658,2.7646,2.7633,2.7629,2.7616,2.7606,2.7592,2.7585,2.7566,2.7562,2.7557,2.7556,2.7558,2.7558,2.7551,2.7552,2.7551,2.7551,2.7551,2.7552,0,2.7728,2.7721,2.7699,2.7686,2.7682,2.7669,2.7657,2.7645,2.7638,2.7621,2.7617,2.7605,2.7589,2.758,2.7558,2.7554,2.7533,2.7532,2.7539,2.7538,2.7529,2.753,2.7499,2.7495,2.7516,2.7516,2.7516,0,2.7711,2.7698,2.7684,2.7676,2.7668,2.7654,2.7645,2.7638,2.7629,2.7613,2.7603,2.7587,2.7574,2.7548,2.7538,2.7522,2.7521,2.7512,2.7518,2.7522,2.7522,2.7523,2.7522,2.751,2.751,2.7509,2.7509,0,2.7682,2.7681,2.7668,2.7654,2.7644,2.7633,2.7621,2.7614,2.7607,2.7596,2.758,2.757,2.7551,2.7535,2.7519,2.7511,2.7509,2.7508,2.7505,2.7506,2.7511,2.7509,2.7536,2.7508,2.7508,2.7508,2.7508,2.7508,2.7663,2.7653,2.7642,2.7628,2.762,2.7611,2.76,2.7593,2.758,2.7565,2.7562,2.7546,2.7534,2.7513,2.7505,2.7493,2.7494,2.749,2.7488,2.7487,2.7488,2.7514,2.749,2.749,2.749,2.749,2.749,0,2.7635,2.7629,2.7617,2.7603,2.7593,2.7594,2.7583,2.7574,2.756,2.755,2.7538,2.7522,2.7508,2.7498,2.7484,2.7476,2.7475,2.7472,2.7472,2.7471,2.7486,2.7491,2.7473,2.7473,2.7473,2.7473,2.7473,2.7473,2.7619,2.7602,2.76,2.7579,2.7573,2.7559,2.7552,2.7544,2.7536,2.7518,2.7507,2.7502,2.7492,2.7478,2.7465,2.7463,2.7458,2.7456,2.7453,2.7468,2.7469,2.7471,2.7475,2.7455,2.7455,2.7439,2.7439,2.7439]}]]